time_stamp(utc),avg(mph),gust(mph),direction(deg),12m_air_temp(f),sonic_u(cm/s),sonic_v(cm/s),sonic_w(cm/s),pressure,2m_air_temp(f),pyranometer(W/m^2)
"2018-10-03 00:02:07+00",20.1,24.1,,73.7,-546,-726,-3,1016.97,73.4,0
"2018-10-03 00:07:07+00",20.2,23.2,,73.7,-507,-749,-6,1017.1,73.4,0
"2018-10-03 00:12:07+00",18.2,22.2,,73.8,-503,-655,7,1017.07,73.4,0
"2018-10-03 00:17:07+00",17.8,19.8,,73.8,-489,-645,7,1017.13,73.4,0
"2018-10-03 00:22:07+00",16.7,21.7,,73.8,-453,-618,17,1017.26,73.4,0
"2018-10-03 00:27:07+00",15.5,19.5,,73.7,-425,-563,14,1017.28,73.4,0
"2018-10-03 00:32:07+00",17.9,20.9,,73.8,-455,-662,-11,1017.16,73.4,0
"2018-10-03 00:37:07+00",15.6,19.6,,73.7,-437,-558,1,1017.23,73.4,0
"2018-10-03 00:42:07+00",19.0,23.0,,73.8,-523,-676,-18,1017.17,73.4,0
"2018-10-03 00:47:07+00",14.9,16.9,,73.7,-444,-513,2,1017.29,73.4,0
"2018-10-03 00:52:07+00",15.5,18.5,,73.6,-412,-567,0,1017.12,73.3,0
"2018-10-03 00:57:07+00",15.4,17.4,,73.6,-409,-561,3,1017.01,73.3,0
"2018-10-03 01:02:07+00",17.3,20.3,,73.6,-469,-636,9,1016.91,73.3,0
"2018-10-03 01:07:07+00",17.0,21.0,,73.6,-462,-606,6,1016.97,73.3,0
"2018-10-03 01:12:07+00",15.9,18.9,,73.6,-444,-579,7,1016.92,73.3,0
"2018-10-03 01:17:07+00",18.6,20.6,,73.6,-500,-684,-9,1016.96,73.3,0
"2018-10-03 01:22:07+00",17.9,20.9,,73.6,-469,-667,2,1016.97,73.2,0
"2018-10-03 01:27:07+00",17.3,19.3,,73.6,-443,-644,11,1017.11,73.2,0
"2018-10-03 01:32:07+00",16.1,18.1,,73.5,-413,-598,-5,1017.01,73.2,0
"2018-10-03 01:37:07+00",16.0,18.0,,73.4,-435,-590,8,1017,73.1,0
"2018-10-03 01:42:07+00",19.0,22.0,,73.3,-448,-715,-15,1016.96,72.8,0
"2018-10-03 01:47:07+00",18.7,22.7,,73.4,-468,-700,-15,1016.94,72.8,0
"2018-10-03 01:52:07+00",20.0,22.0,,73.4,-537,-732,3,1016.89,72.8,0
"2018-10-03 01:57:07+00",17.9,20.9,,73.4,-460,-659,-6,1016.83,72.9,0
"2018-10-03 02:02:07+00",19.9,21.9,,73.4,-524,-738,5,1016.79,72.9,0
"2018-10-03 02:07:07+00",17.4,23.4,,73.4,-478,-627,17,1016.83,72.9,0
"2018-10-03 02:12:07+00",18.1,21.1,,73.4,-507,-653,6,1016.88,73,0
"2018-10-03 02:17:07+00",15.7,18.7,,73.4,-449,-565,17,1016.83,73,0
"2018-10-03 02:22:07+00",17.8,21.8,,73.5,-517,-620,2,1016.86,73,0
"2018-10-03 02:27:07+00",17.0,22.0,,73.5,-530,-555,19,1016.95,73.1,0
"2018-10-03 02:32:07+00",20.3,23.3,,73.6,-664,-597,-1,1017.11,73.1,0
"2018-10-03 02:37:07+00",21.1,24.1,,73.6,-674,-639,8,1017.09,73.2,0
"2018-10-03 02:42:07+00",21.9,26.9,,73.5,-694,-699,19,1017.02,73.2,0
"2018-10-03 02:47:07+00",18.9,22.9,,73.5,-618,-559,25,1017,73.2,0
"2018-10-03 02:52:07+00",21.4,25.4,,73.5,-684,-665,22,1016.9,73.1,0
"2018-10-03 02:57:07+00",20.4,25.4,,73.4,-649,-655,13,1016.73,73.1,0
"2018-10-03 03:02:07+00",20.7,25.7,,73.4,-663,-637,-9,1016.75,73.1,0
"2018-10-03 03:07:07+00",20.3,24.3,,73.4,-681,-575,8,1016.84,73.1,0
"2018-10-03 03:12:07+00",19.3,21.3,,73.5,-651,-527,13,1016.93,73.1,0
"2018-10-03 03:17:07+00",18.2,22.2,,73.4,-593,-538,11,1016.79,73.1,0
"2018-10-03 03:22:07+00",19.0,21.0,,73.4,-620,-555,0,1016.72,73.1,0
"2018-10-03 03:27:07+00",17.5,19.5,,73.4,-565,-544,23,1016.61,73.1,0
"2018-10-03 03:32:07+00",16.4,18.4,,73.4,-512,-522,5,1016.69,73.1,0
"2018-10-03 03:37:07+00",16.0,19.0,,73.4,-522,-477,22,1016.66,73.1,0
"2018-10-03 03:42:07+00",15.5,17.5,,73.4,-534,-422,16,1016.71,73.1,0
"2018-10-03 03:47:07+00",17.4,19.4,,73.4,-609,-458,15,1016.76,73,0
"2018-10-03 03:52:07+00",15.8,19.8,,73.3,-551,-399,34,1016.79,73,0
"2018-10-03 03:57:07+00",16.6,19.6,,73.3,-643,-385,2,1016.9,73,0
"2018-10-03 04:02:07+00",13.3,16.3,,73,-457,-351,4,1016.81,72.6,0
"2018-10-03 04:07:07+00",10.1,12.1,,73,-395,-231,15,1016.92,72.3,0
"2018-10-03 04:22:07+00",20.7,22.7,,68.5,16060,0,230,1017.94,68,-0.1
"2018-10-03 04:27:07+00",10.1,12.1,,67.6,-6,439,15,1017.88,66.8,0
"2018-10-03 04:32:07+00",15.8,17.8,,66.4,-260,644,18,1018.14,66.1,0
"2018-10-03 04:37:07+00",13.8,16.8,,65.7,-164,580,38,1018.01,65.5,0
"2018-10-03 04:42:07+00",9.4,11.4,,65.2,-115,399,14,1017.72,65,0
"2018-10-03 04:47:07+00",7.5,10.5,,65.2,-153,290,32,1017.58,64.7,0
"2018-10-03 04:52:07+00",7.1,8.1,,65.2,-137,273,18,1017.66,64.6,0
"2018-10-03 04:57:07+00",6.4,7.4,,65.2,-36,271,9,1017.54,64.6,0
"2018-10-03 05:02:07+00",6.7,7.7,,65.1,-52,276,14,1017.55,64.5,0
"2018-10-03 05:07:07+00",6.1,7.1,,65,-75,241,16,1017.85,64.6,0
"2018-10-03 05:12:07+00",3.9,4.9,,64.7,94,133,4,1017.58,64.4,0
"2018-10-03 05:17:07+00",1.3,2.3,,64.5,-13,29,-16,1017.8,64.3,0
"2018-10-03 05:22:07+00",2.5,3.5,,64.3,75,89,-8,1017.42,64.2,0
"2018-10-03 05:27:07+00",6.6,7.6,,64.1,226,174,-16,1016.93,64,0
"2018-10-03 05:32:07+00",5.5,6.5,,64.2,236,19,15,1016.58,64.1,0
"2018-10-03 05:37:07+00",5.1,6.1,,64.3,157,-144,5,1016.77,64.4,0
"2018-10-03 05:42:07+00",6.5,7.5,,64.3,139,-246,-3,1016.74,64.4,0
"2018-10-03 05:47:07+00",4.4,5.4,,64.3,184,-32,19,1016.57,64.4,0
"2018-10-03 05:52:07+00",4.2,5.2,,64.6,175,-42,8,1016.53,64.5,0
"2018-10-03 05:57:07+00",4.9,4.9,,64.7,201,-47,2,1016.65,64.6,0
"2018-10-03 06:02:07+00",4.4,5.4,,64.8,184,-34,2,1016.63,64.7,0
"2018-10-03 06:07:07+00",3.2,4.2,,64.9,124,-40,3,1016.6,64.8,0
"2018-10-03 06:12:07+00",3.3,4.3,,65,106,-84,-1,1016.48,64.9,0
"2018-10-03 06:17:07+00",4.5,5.5,,65.1,136,-132,-1,1016.27,65.1,0
"2018-10-03 06:22:07+00",5.8,6.8,,65.4,109,-224,-2,1016.32,65.2,0
"2018-10-03 06:27:07+00",7.6,8.6,,65.6,235,-240,1,1016.07,65.4,0
"2018-10-03 06:32:07+00",6.9,7.9,,65.7,236,-173,-7,1016.02,65.4,0
"2018-10-03 06:37:07+00",5.6,6.6,,65.9,174,-170,0,1016.11,65.5,0
"2018-10-03 06:42:07+00",6.2,6.2,,66,217,-145,-4,1016.01,65.5,0
"2018-10-03 06:47:07+00",6.9,7.9,,66.2,219,-208,1,1015.95,65.7,0
"2018-10-03 06:52:07+00",6.4,7.4,,66.4,209,-185,-6,1015.88,65.9,0
"2018-10-03 06:57:07+00",7.9,8.9,,66.5,212,-262,-2,1015.87,65.9,0
"2018-10-03 07:02:07+00",7.0,8.0,,66.6,229,-201,2,1016.03,66.1,0
"2018-10-03 07:07:07+00",8.3,9.3,,66.7,230,-270,-3,1015.95,66.2,0
"2018-10-03 07:12:07+00",6.9,8.9,,66.9,166,-251,-1,1016.04,66.2,0
"2018-10-03 07:17:07+00",6.9,8.9,,67,170,-246,-6,1015.96,66.4,0
"2018-10-03 07:22:07+00",6.3,7.3,,67,126,-241,-3,1015.93,66.4,0
"2018-10-03 07:27:07+00",7.2,8.2,,67.1,170,-261,-6,1015.84,66.5,0
"2018-10-03 07:32:07+00",6.2,7.2,,67.2,173,-205,-2,1016.01,66.6,0
"2018-10-03 07:37:07+00",5.5,6.5,,67.3,148,-179,2,1015.98,66.7,0
"2018-10-03 07:42:07+00",6.0,8.0,,67.4,159,-198,-3,1015.92,66.9,0
"2018-10-03 07:47:07+00",6.9,7.9,,67.5,157,-246,-2,1015.93,67,0
"2018-10-03 07:52:07+00",5.4,6.4,,67.6,97,-207,0,1016.05,67.1,0
"2018-10-03 07:57:07+00",6.8,7.8,,67.7,87,-278,-1,1016.06,67.1,0
"2018-10-03 08:02:07+00",7.7,8.7,,67.8,140,-305,-10,1016.04,67.2,0
"2018-10-03 08:07:07+00",7.3,8.3,,68,129,-282,-3,1016,67.5,0
"2018-10-03 08:12:07+00",7.9,8.9,,68.1,145,-302,-8,1015.93,67.5,0
"2018-10-03 08:17:07+00",8.6,9.6,,68.2,169,-325,-6,1015.89,67.6,0
"2018-10-03 08:22:07+00",6.5,8.5,,68.3,134,-241,-2,1015.99,67.7,0
"2018-10-03 08:27:07+00",8.0,9.0,,68.4,191,-281,-3,1015.95,67.8,0
"2018-10-03 08:32:07+00",8.0,9.0,,68.5,120,-324,-5,1015.94,68,0
"2018-10-03 08:37:07+00",8.9,10.9,,68.5,113,-368,-6,1015.84,68,0
"2018-10-03 08:42:07+00",8.8,9.8,,68.6,127,-357,3,1015.86,67.9,0
"2018-10-03 08:47:07+00",10.5,12.5,,68.6,149,-430,-12,1015.84,68,0
"2018-10-03 08:52:07+00",8.0,11.0,,68.7,82,-330,0,1015.93,68.2,0
"2018-10-03 08:57:07+00",7.4,10.4,,68.8,72,-303,-7,1015.93,68.3,0
"2018-10-03 09:02:07+00",8.3,10.3,,69,90,-330,3,1015.86,68.5,0
"2018-10-03 09:07:07+00",9.5,11.5,,69.1,116,-395,0,1015.91,68.6,0
"2018-10-03 09:12:07+00",9.3,10.3,,69.2,100,-375,-2,1015.86,68.6,0
"2018-10-03 09:17:07+00",9.9,11.9,,69.3,76,-420,-5,1015.85,68.7,0
"2018-10-03 09:22:07+00",9.1,11.1,,69.3,66,-383,-12,1015.79,68.7,0
"2018-10-03 09:27:07+00",8.1,10.1,,69.3,51,-334,-15,1015.82,68.8,0
"2018-10-03 09:32:07+00",8.2,10.2,,69.3,48,-345,-10,1015.87,68.8,0
"2018-10-03 09:37:07+00",7.7,8.7,,69.4,32,-325,-3,1015.84,68.8,0
"2018-10-03 09:42:07+00",8.6,9.6,,69.3,27,-361,-3,1015.69,68.7,0
"2018-10-03 09:47:07+00",7.0,8.0,,69.4,18,-291,-10,1015.76,68.7,0
"2018-10-03 09:52:07+00",7.3,9.3,,69.5,54,-308,-12,1015.73,68.7,0
"2018-10-03 09:57:07+00",6.7,7.7,,69.5,33,-276,-4,1015.79,68.8,0
"2018-10-03 10:02:07+00",7.0,8.0,,69.7,15,-290,-5,1015.91,68.9,0
"2018-10-03 10:07:07+00",5.9,6.9,,69.8,22,-242,-13,1015.91,68.9,0
"2018-10-03 10:12:07+00",5.0,6.0,,69.8,29,-205,-5,1015.92,68.9,0
"2018-10-03 10:17:07+00",5.3,6.3,,70,54,-218,-5,1015.95,68.9,0
"2018-10-03 10:22:07+00",4.9,5.9,,70,28,-195,5,1015.95,68.9,0
"2018-10-03 10:27:07+00",4.7,5.7,,70,-9,-193,-7,1016.02,69,0
"2018-10-03 10:32:07+00",3.5,4.5,,70.2,8,-146,8,1016.02,69.1,0
"2018-10-03 10:37:07+00",3.5,3.5,,70.2,-46,-135,-3,1016.06,69.1,0
"2018-10-03 10:42:07+00",3.5,3.5,,70.2,-47,-132,-4,1016.13,69,0
"2018-10-03 10:47:07+00",2.9,2.9,,70.2,-93,-78,1,1016.07,68.9,0
"2018-10-03 10:52:07+00",2.9,2.9,,70,-61,-105,-1,1016.1,68.8,0
"2018-10-03 10:57:07+00",4.5,4.5,,70.1,-95,-168,-1,1016.1,68.6,0
"2018-10-03 11:02:07+00",5.7,5.7,,70.1,-116,-213,-2,1016.13,68.6,0
"2018-10-03 11:07:07+00",5.6,6.6,,70.2,-141,-197,3,1016.2,68.4,0
"2018-10-03 11:12:07+00",4.6,4.6,,70.2,-150,-151,5,1016.2,68.4,0
"2018-10-03 11:17:07+00",3.9,3.9,,70.2,-135,-96,9,1016.15,68.4,0
"2018-10-03 11:22:07+00",4.0,4.0,,70.1,-137,-99,8,1016.23,68.3,0
"2018-10-03 11:27:07+00",3.7,4.7,,70.1,-156,-63,6,1016.3,68.3,0
"2018-10-03 11:32:07+00",3.0,3.0,,70.1,-119,48,8,1016.46,68.3,1.8
"2018-10-03 11:37:07+00",5.3,6.3,,69.4,-49,213,-4,1016.45,68,7
"2018-10-03 11:42:07+00",4.5,5.5,,69,-64,178,15,1016.4,68,15.1
"2018-10-03 11:47:07+00",4.4,4.4,,68.6,-19,180,9,1016.51,68.2,20.5
"2018-10-03 11:52:07+00",5.0,6.0,,68.6,-4,211,6,1016.46,68.5,32.3
"2018-10-03 11:57:07+00",3.5,4.5,,68.7,5,141,6,1016.37,68.9,41.6
"2018-10-03 12:02:07+00",4.0,5.0,,68.9,13,161,0,1016.45,69.3,52
"2018-10-03 12:07:07+00",3.9,3.9,,69,31,155,-3,1016.39,69.6,64.1
"2018-10-03 12:12:07+00",4.8,4.8,,69.1,24,197,-1,1016.39,69.8,73.2
"2018-10-03 12:17:07+00",4.9,5.9,,69.3,-6,204,2,1016.54,70.2,83.7
"2018-10-03 12:22:07+00",5.8,5.8,,69.3,-1,240,6,1016.52,70.5,93.6
"2018-10-03 12:27:07+00",5.4,6.4,,69.4,-24,227,5,1016.54,70.9,102.3
"2018-10-03 12:32:07+00",5.7,6.7,,69.5,-29,242,11,1016.52,71.3,112.3
"2018-10-03 12:37:07+00",5.2,6.2,,69.5,-31,213,-5,1016.49,71.6,123.6
"2018-10-03 12:42:07+00",5.9,7.9,,69.6,-72,240,28,1016.59,71.6,132
"2018-10-03 12:47:07+00",6.8,7.8,,69.6,-163,247,9,1016.58,71.5,143.3
"2018-10-03 12:52:07+00",6.3,7.3,,69.6,-96,252,14,1016.77,71.6,153.9
"2018-10-03 12:57:07+00",6.3,7.3,,69.7,-205,189,13,1016.73,71.7,162.1
"2018-10-03 13:02:07+00",7.1,8.1,,70,-265,186,43,1016.71,71.7,170.1
"2018-10-03 13:07:07+00",8.5,9.5,,70,-274,247,38,1016.84,71.6,179.4
"2018-10-03 13:12:07+00",9.2,11.2,,70,-332,246,36,1016.9,71.6,185.1
"2018-10-03 13:17:07+00",8.0,9.0,,70.1,-285,228,40,1016.85,71.6,196.2
"2018-10-03 13:22:07+00",6.2,7.2,,70.4,-209,191,43,1016.82,71.8,201.7
"2018-10-03 13:27:07+00",6.9,8.9,,70.7,-223,212,37,1016.79,72.1,210
"2018-10-03 13:32:07+00",8.2,9.2,,70.8,-280,221,11,1016.79,72.4,210.6
"2018-10-03 13:37:07+00",7.1,7.1,,71,-254,186,28,1016.82,72.8,225.4
"2018-10-03 13:42:07+00",7.5,8.5,,71.4,-268,176,19,1016.93,73,231.4
"2018-10-03 13:47:07+00",8.9,10.9,,72.1,-256,288,48,1016.87,73.5,226.9
"2018-10-03 13:52:07+00",13.6,15.6,,72.6,-215,555,31,1016.96,73.8,246.1
"2018-10-03 13:57:07+00",11.0,13.0,,72.8,-299,394,46,1016.97,74,249.2
"2018-10-03 14:02:07+00",12.7,14.7,,72.9,-210,509,26,1016.98,74.2,263.5
"2018-10-03 14:07:07+00",12.1,13.1,,73,-267,462,11,1017.1,74.4,259.5
"2018-10-03 14:12:07+00",12.2,13.2,,73.3,-228,482,32,1017.08,74.7,278.7
"2018-10-03 14:17:07+00",14.3,17.3,,73.4,-304,564,30,1017.01,74.9,287.4
"2018-10-03 14:22:07+00",12.3,14.3,,73.3,-178,505,20,1017.16,75,293.5
"2018-10-03 14:27:07+00",13.1,14.1,,73.6,-211,539,24,1017.2,75.3,298.9
"2018-10-03 14:32:07+00",14.1,16.1,,73.6,-207,586,13,1017.15,75.5,305.5
"2018-10-03 14:37:07+00",12.4,14.4,,73.8,-197,506,17,1017.07,75.9,315.1
"2018-10-03 14:42:07+00",12.1,15.1,,73.8,-270,463,47,1017.17,76,320.6
"2018-10-03 14:47:07+00",13.8,15.8,,73.8,-238,553,19,1017.13,75.9,329.1
"2018-10-03 14:52:07+00",8.6,10.6,,74.1,-144,357,77,1017.09,76.2,335.7
"2018-10-03 14:57:07+00",12.6,14.6,,74,-105,543,14,1017.15,76.4,341.9
"2018-10-03 15:02:07+00",15.5,18.5,,74,-353,591,28,1017.18,76.4,349
"2018-10-03 15:07:07+00",12.8,14.8,,73.9,-254,508,25,1017.16,76.3,354.4
"2018-10-03 15:12:07+00",13.8,15.8,,74.2,-466,400,33,1017.13,76.3,361.3
"2018-10-03 15:17:07+00",11.9,13.9,,74.4,-326,411,33,1017.16,76.5,365.2
"2018-10-03 15:22:07+00",13.1,16.1,,74.5,-384,431,32,1017.24,76.5,371.7
"2018-10-03 15:27:07+00",14.6,15.6,,74.3,-478,446,31,1017.22,76.4,377.8
"2018-10-03 15:32:07+00",12.2,14.2,,74.4,-422,330,66,1017.18,76.3,386.7
"2018-10-03 15:37:07+00",14.5,16.5,,74.6,-511,392,47,1017.28,76.5,400.8
"2018-10-03 15:42:07+00",15.8,17.8,,74.4,-591,402,27,1017.31,76.5,423.3
"2018-10-03 15:47:07+00",17.7,20.7,,74.6,-384,687,61,1017.28,76.7,370.5
"2018-10-03 15:52:07+00",16.6,19.6,,74.2,-445,595,25,1017.16,76.5,404.7
"2018-10-03 15:57:07+00",14.0,16.0,,74,-441,442,48,1017.15,76.2,406.2
"2018-10-03 16:02:07+00",13.7,16.7,,74.3,-443,432,39,1017.08,76.3,409.2
"2018-10-03 16:07:07+00",13.8,15.8,,74.4,-484,398,22,1017.05,76.5,412.1
"2018-10-03 16:12:07+00",13.1,15.1,,74.4,-352,454,28,1017.18,76.5,414.1
"2018-10-03 16:17:07+00",11.5,13.5,,74.7,-339,368,38,1017.3,76.7,416.1
"2018-10-03 16:22:07+00",15.1,18.1,,74.5,-536,415,28,1017.21,76.7,389.6
"2018-10-03 16:27:07+00",11.7,13.7,,74.7,-364,366,17,1017.3,76.8,387.3
"2018-10-03 16:32:07+00",11.0,13.0,,74.3,-370,343,46,1017.4,76.3,283.6
"2018-10-03 16:37:07+00",14.6,17.6,,74.5,-511,440,47,1017.36,76.2,376.8
"2018-10-03 16:42:07+00",14.6,16.6,,74.5,-517,401,25,1017.36,76.5,438.9
"2018-10-03 16:47:07+00",15.2,19.2,,74.9,-546,393,31,1017.17,77.2,436.2
"2018-10-03 16:52:07+00",14.2,16.2,,75,-435,461,31,1017.16,77.2,440.2
"2018-10-03 16:57:07+00",16.4,19.4,,75.2,-488,551,49,1017.19,77.2,438.6
"2018-10-03 17:02:07+00",12.7,14.7,,75.4,-402,390,56,1017.18,77.3,428.8
"2018-10-03 17:07:07+00",13.5,15.5,,75.2,-378,465,20,1017.13,77.4,316.7
"2018-10-03 17:12:07+00",12.7,14.7,,75.3,-424,385,29,1017.03,77.4,429.7
"2018-10-03 17:17:07+00",9.1,11.1,,75.5,-294,265,35,1017.08,77.9,455.2
"2018-10-03 17:22:07+00",14.0,15.0,,75.2,-431,457,30,1017.03,77.7,430
"2018-10-03 17:27:07+00",10.7,11.7,,75.1,-343,322,25,1017.01,77.4,416.8
"2018-10-03 17:32:07+00",11.3,12.3,,75.6,-372,339,36,1016.99,77.7,406.5
"2018-10-03 17:37:07+00",9.6,11.6,,75.8,-351,253,23,1016.9,78,399.6
"2018-10-03 17:42:07+00",12.2,15.2,,75.6,-368,407,34,1016.84,78.2,387
"2018-10-03 17:47:07+00",11.0,14.0,,76.1,-291,393,62,1016.73,78.3,392.6
"2018-10-03 17:52:07+00",10.1,12.1,,76,-279,354,42,1016.74,78.2,388.7
"2018-10-03 17:57:07+00",8.7,9.7,,75.8,-319,206,28,1016.74,78.1,383.2
"2018-10-03 18:02:07+00",8.9,10.9,,75.8,-330,215,19,1016.77,78.3,383.1
"2018-10-03 18:07:07+00",7.5,8.5,,76,-289,174,54,1016.74,78.5,401
"2018-10-03 18:12:07+00",10.5,12.5,,76.4,-175,431,44,1016.73,79.2,363.5
"2018-10-03 18:17:07+00",12.2,13.2,,76.1,-367,407,35,1016.7,78.9,369.3
"2018-10-03 18:22:07+00",12.5,13.5,,76.3,-346,433,23,1016.77,78.7,353.9
"2018-10-03 18:27:07+00",10.7,14.7,,76.4,-249,394,47,1016.81,78.6,357.3
"2018-10-03 18:32:07+00",11.4,12.4,,76.4,-281,420,36,1016.79,78.7,327.1
"2018-10-03 18:37:07+00",11.9,13.9,,76.1,-297,428,20,1016.71,78.5,290.6
"2018-10-03 18:42:07+00",8.8,10.8,,76.3,-186,335,21,1016.73,78.7,342.6
"2018-10-03 18:47:07+00",11.9,13.9,,76.4,-396,371,30,1016.65,78.8,336.2
"2018-10-03 18:52:07+00",9.9,10.9,,76.3,-321,293,26,1016.7,78.8,330.5
"2018-10-03 18:57:07+00",3.8,4.8,,76.5,-106,114,45,1016.71,79.2,324.1
"2018-10-03 19:02:07+00",10.5,13.5,,76.8,-192,419,3,1016.67,79.9,335.1
"2018-10-03 19:07:07+00",12.2,14.2,,76.4,-235,480,23,1016.63,79.4,122.8
"2018-10-03 19:12:07+00",10.9,12.9,,76.4,-217,429,24,1016.69,79,321.8
"2018-10-03 19:17:07+00",9.2,11.2,,76.5,-161,363,2,1016.63,79.3,294.2
"2018-10-03 19:22:07+00",7.2,9.2,,76.7,-42,292,29,1016.67,79.4,324.8
"2018-10-03 19:27:07+00",11.4,13.4,,76.7,-90,486,6,1016.58,80.1,290.9
"2018-10-03 19:32:07+00",12.4,14.4,,76.5,-50,543,9,1016.56,80.2,277
"2018-10-03 19:37:07+00",8.9,11.9,,76.8,-131,357,4,1016.55,80.4,269.7
"2018-10-03 19:42:07+00",8.1,9.1,,76.4,-77,341,16,1016.58,80,202.1
"2018-10-03 19:47:07+00",11.2,12.2,,76.7,-238,429,10,1016.57,80.1,260.8
"2018-10-03 19:52:07+00",11.1,12.1,,76.7,-260,408,27,1016.58,79.9,263.7
"2018-10-03 19:57:07+00",9.7,10.7,,76.8,-177,383,6,1016.54,79.9,249.7
"2018-10-03 20:02:07+00",9.4,11.4,,76.9,-292,304,32,1016.58,79.9,232
"2018-10-03 20:07:07+00",7.1,8.1,,76.8,-80,292,1,1016.68,79.7,224.6
"2018-10-03 20:12:07+00",8.8,10.8,,77,-155,350,7,1016.64,80,206.6
"2018-10-03 20:17:07+00",9.2,11.2,,77,-142,364,30,1016.63,80,216.1
"2018-10-03 20:22:07+00",12.0,14.0,,76.9,6,522,-4,1016.65,79.9,105.9
"2018-10-03 20:27:07+00",8.0,9.0,,76.9,-28,340,36,1016.67,79.7,156.7
"2018-10-03 20:32:07+00",8.2,9.2,,76.8,-56,365,16,1016.71,79.9,189.3
"2018-10-03 20:37:07+00",8.2,9.2,,77.1,49,341,7,1016.71,79.9,199.6
"2018-10-03 20:42:07+00",8.9,10.9,,77,-115,360,-7,1016.79,80.1,183.3
"2018-10-03 20:47:07+00",9.1,12.1,,75,406,17,13,1016.84,79.3,90.6
"2018-10-03 20:52:07+00",9.7,10.7,,73.1,432,-43,14,1016.83,77.1,172.8
"2018-10-03 20:57:07+00",11.7,12.7,,72.9,518,28,26,1016.87,76.3,168.9
"2018-10-03 21:02:07+00",11.8,12.8,,72.5,529,30,4,1016.92,75.5,158.9
"2018-10-03 21:07:07+00",10.0,11.0,,72.5,457,-29,32,1016.98,75.2,137.5
"2018-10-03 21:12:07+00",11.0,12.0,,72.1,486,23,14,1017.01,74.6,44.5
"2018-10-03 21:17:07+00",8.9,9.9,,72,397,41,31,1017,74.1,2.3
"2018-10-03 21:22:07+00",8.4,9.4,,71.8,364,17,4,1017.08,73.5,89
"2018-10-03 21:27:07+00",9.8,10.8,,72,436,29,4,1017.01,73.6,78.8
"2018-10-03 21:32:07+00",9.6,10.6,,72.1,421,75,11,1017.05,73.6,64.4
"2018-10-03 21:37:07+00",10.2,11.2,,72.1,453,-8,10,1017,73.4,59.4
"2018-10-03 21:42:07+00",10.3,11.3,,72,467,4,8,1017.02,73.2,47.9
"2018-10-03 21:47:07+00",10.7,11.7,,71.9,477,-33,4,1017.05,73,41.4
"2018-10-03 21:52:07+00",8.3,9.3,,71.9,363,-35,18,1017.08,72.8,31.2
"2018-10-03 21:57:07+00",8.5,9.5,,71.9,377,-43,1,1017.06,72.7,20.6
"2018-10-03 22:02:07+00",8.9,9.9,,71.8,385,-67,2,1017.21,72.5,13.7
"2018-10-03 22:07:07+00",9.4,10.4,,71.5,413,-67,11,1017.2,72.2,0
"2018-10-03 22:12:07+00",9.2,10.2,,71.4,402,-58,7,1017.32,71.8,0.3
"2018-10-03 22:17:07+00",6.8,7.8,,71.3,301,-20,16,1017.35,71.7,0
"2018-10-03 22:22:07+00",7.6,7.6,,71.2,330,-55,5,1017.31,71.4,0
"2018-10-03 22:27:07+00",8.3,9.3,,71.1,357,-77,9,1017.32,71.1,0
"2018-10-03 22:32:07+00",6.9,7.9,,71,282,-96,5,1017.41,70.8,0
"2018-10-03 22:37:07+00",7.8,8.8,,70.9,334,-73,6,1017.41,70.5,0
"2018-10-03 22:42:07+00",7.6,8.6,,70.9,313,-111,-2,1017.41,70.2,0
"2018-10-03 22:47:07+00",7.4,8.4,,70.8,276,-163,7,1017.42,70.1,0
"2018-10-03 22:52:07+00",7.2,8.2,,70.9,263,-165,6,1017.46,70,0
"2018-10-03 22:57:07+00",5.7,6.7,,70.8,207,-139,11,1017.56,70,0
"2018-10-03 23:02:07+00",6.8,7.8,,70.8,233,-179,1,1017.61,70,0
"2018-10-03 23:07:07+00",5.8,6.8,,70.8,208,-133,0,1017.53,70,0
"2018-10-03 23:12:07+00",5.7,6.7,,70.9,216,-114,5,1017.56,69.9,0
"2018-10-03 23:17:07+00",4.9,5.9,,70.9,143,-145,2,1017.63,69.9,0
"2018-10-03 23:22:07+00",4.8,4.8,,70.9,143,-141,1,1017.69,69.9,0
"2018-10-03 23:27:07+00",4.8,5.8,,70.8,138,-152,-1,1017.82,69.8,0
"2018-10-03 23:32:07+00",6.3,6.3,,70.8,199,-187,1,1017.82,69.8,0
"2018-10-03 23:37:07+00",6.1,6.1,,71,197,-168,5,1017.85,69.7,0
"2018-10-03 23:42:07+00",5.6,6.6,,70.9,200,-134,-1,1017.86,69.5,0
"2018-10-03 23:47:07+00",5.3,6.3,,70.9,195,-112,-6,1017.83,69.3,0
"2018-10-03 23:52:07+00",5.0,6.0,,70.8,201,-75,6,1017.87,69.2,0
"2018-10-03 23:57:07+00",4.1,5.1,,70.8,173,-48,6,1017.84,69.1,0
